Location: Gandikunta
(16.3784°N, 80.8378°E)
Time: 00:35:02
(UTC+00:00)

COSMOS 2455 - Pass Details

Date: 19 May 2025
Orbit: 899 x 909 km, 67.1° (Epoch: 18 June)

Event Time Altitude Azimuth Distance (km) Brightness Sun altitude
Rises 22:02:27 0° 353° (N) 3,529 6.3 -27.1°
Reaches altitude 10° 22:05:12 10° 2° (N) 2,587 5.6 -26.5°
Maximum altitude 22:10:36 34° 66° (ENE) 1,443 4.4 -25.4°
Drops below altitude 10° 22:15:58 10° 130° (SE) 2,582 5.4 -24.3°
Sets 22:18:41 0° 139° (SE) 3,521 6.0 -23.8°
